Weather History for Lakeville, MN

Change the Weather History Date:

Friday, January 25, 2013

  Actual Average Record
Temperature  
Mean Temperature 9 °F -  
Max Temperature 17 °F 22 °F 53 °F (1981)
Min Temperature 1 °F 5 °F -20 °F (1972)
Degree Days  
Heating Degree Days 56    
Moisture  
Dew Point 4 °F    
Average Humidity 73    
Maximum Humidity 85    
Minimum Humidity 58    
Precipitation  
Precipitation 0.00 in - - ()
Sea Level Pressure  
Sea Level Pressure 30.08 in    
Wind  
Wind Speed 11 mph (West)    
Max Wind Speed 26 mph    
Max Gust Speed 37 mph    
Visibility 9 miles    
Events Snow    
Averages and records for this station are not official NWS values.
T = Trace of Precipitation, MM = Missing Value Source: NWS Daily Summary

Daily Weather History Graph

Daily Weather History Graph

Search for Another Location

Airport:

Trip Planner

Search our weather history database for the weather conditions in past years. The results will help you decide how hot, cold, wet, or windy it might be!

Date:

Astronomy

Jan. 25, 2013 Rise Set
Actual Time 7:38 AM CST 5:12 PM CST
Civil Twilight 7:07 AM CST 5:44 PM CST
Nautical Twilight 6:31 AM CST 6:19 PM CST
Astronomical Twilight 5:57 AM CST 6:53 PM CST
Moon 4:10 PM CST 6:19 AM CST
Length of Visible Light 10h 36m
Length of Day
9h 33m
Waxing Gibbous, 98% of the Moon is Illuminated
Jan 25
Waxing Gibbous
Jan 26
Full
Feb 3
Last Quarter
Feb 10
New
Feb 17
First Quarter

Hourly Weather History & Observations

Time (CST) Temp. Windchill Dew Point Humidity Pressure Visibility Wind Dir Wind Speed Gust Speed Precip Events Conditions
12:08 AM 12.2 °F -1.0 °F 6.8 °F 79% 30.16 in 3.0 mi South 10.4 mph - N/A Snow Light Snow
12:28 AM 12.2 °F -0.2 °F 6.8 °F 79% 30.14 in 7.0 mi South 9.2 mph - N/A   Overcast
12:48 AM 12.2 °F -1.8 °F 8.6 °F 85% 30.14 in 10.0 mi South 11.5 mph 16.1 mph N/A   Overcast
1:09 AM 12.2 °F 1.7 °F 8.6 °F 85% 30.13 in 5.0 mi South 6.9 mph - N/A Snow Light Snow
1:28 AM 12.2 °F 2.9 °F 8.6 °F 85% 30.12 in 5.0 mi South 5.8 mph - N/A Snow Light Snow
1:49 AM 12.2 °F 1.7 °F 8.6 °F 85% 30.09 in 7.0 mi South 6.9 mph - N/A   Overcast
2:09 AM 12.2 °F 0.7 °F 8.6 °F 85% 30.09 in 10.0 mi South 8.1 mph - N/A   Overcast
2:28 AM 12.2 °F -0.2 °F 8.6 °F 85% 30.07 in 10.0 mi South 9.2 mph - N/A   Overcast
2:49 AM 12.2 °F -0.2 °F 8.6 °F 85% 30.07 in 10.0 mi SSW 9.2 mph - N/A   Overcast
3:09 AM 12.2 °F -0.2 °F 8.6 °F 85% 30.06 in 10.0 mi SSW 9.2 mph - N/A   Overcast
3:28 AM 14.0 °F 3.9 °F 8.6 °F 79% 30.05 in 10.0 mi SSW 6.9 mph - N/A   Overcast
3:49 AM 14.0 °F 5.1 °F 8.6 °F 79% 30.03 in 10.0 mi SSW 5.8 mph - N/A   Overcast
4:09 AM 14.0 °F 3.9 °F 8.6 °F 79% 30.01 in 10.0 mi SSW 6.9 mph - N/A   Overcast
4:28 AM 14.0 °F 5.1 °F 6.8 °F 73% 29.99 in 10.0 mi SSW 5.8 mph - N/A   Overcast
4:49 AM 14.0 °F 5.1 °F 6.8 °F 73% 29.98 in 10.0 mi SSW 5.8 mph - N/A   Overcast
5:09 AM 15.8 °F 6.1 °F 6.8 °F 68% 29.97 in 10.0 mi SW 6.9 mph - N/A   Overcast
5:28 AM 15.8 °F 5.1 °F 6.8 °F 68% 29.97 in 10.0 mi SW 8.1 mph - N/A   Overcast
5:48 AM 15.8 °F 3.4 °F 6.8 °F 68% 29.97 in 10.0 mi SW 10.4 mph - N/A   Overcast
6:09 AM 15.8 °F 4.2 °F 6.8 °F 68% 29.95 in 10.0 mi WSW 9.2 mph - N/A   Overcast
6:28 AM 15.8 °F 3.4 °F 6.8 °F 68% 29.95 in 10.0 mi WSW 10.4 mph 16.1 mph N/A   Overcast
6:48 AM 15.8 °F 5.1 °F 6.8 °F 68% 29.94 in 10.0 mi WSW 8.1 mph - N/A   Overcast
7:09 AM 15.8 °F 4.2 °F 6.8 °F 68% 29.95 in 10.0 mi WSW 9.2 mph 18.4 mph N/A   Overcast
7:28 AM 15.8 °F 4.2 °F 8.6 °F 73% 29.95 in 10.0 mi WSW 9.2 mph - N/A   Overcast
7:48 AM 15.8 °F 4.2 °F 8.6 °F 73% 29.95 in 10.0 mi WSW 9.2 mph 17.3 mph N/A   Overcast
8:09 AM 15.8 °F 5.1 °F 8.6 °F 73% 29.95 in 10.0 mi WSW 8.1 mph - N/A   Overcast
8:28 AM 15.8 °F 3.4 °F 8.6 °F 73% 29.95 in 10.0 mi West 10.4 mph - N/A   Overcast
8:48 AM 15.8 °F 4.2 °F 10.4 °F 79% 29.94 in 10.0 mi West 9.2 mph 17.3 mph N/A Snow Light Snow
9:09 AM 17.6 °F 3.2 °F 10.4 °F 73% 29.94 in 7.0 mi West 15.0 mph 23.0 mph N/A Snow Light Snow
9:28 AM 17.6 °F 2.2 °F 10.4 °F 73% 29.94 in 10.0 mi West 17.3 mph 23.0 mph N/A Snow Light Snow
9:48 AM 17.6 °F 0.5 °F 12.2 °F 79% 29.94 in 3.0 mi West 21.9 mph 29.9 mph N/A Snow Light Snow
10:09 AM 17.6 °F -0.6 °F 10.4 °F 73% 29.95 in 1.8 mi WNW 25.3 mph 36.8 mph N/A Snow Light Snow
10:28 AM 17.6 °F -1.0 °F 5.0 °F 58% 29.96 in 10.0 mi WNW 26.5 mph 34.5 mph N/A   Scattered Clouds
10:49 AM 15.8 °F -3.1 °F 5.0 °F 62% 29.97 in 10.0 mi WNW 25.3 mph 32.2 mph N/A   Clear
11:08 AM 15.8 °F -1.9 °F 5.0 °F 62% 29.97 in 10.0 mi West 21.9 mph 27.6 mph N/A   Clear
11:29 AM 15.8 °F -1.9 °F 5.0 °F 62% 29.97 in 10.0 mi WNW 21.9 mph 28.8 mph N/A   Clear
11:49 AM 15.8 °F -1.9 °F 6.8 °F 68% 29.98 in 10.0 mi WNW 21.9 mph 26.5 mph N/A   Clear
12:08 PM 15.8 °F -1.9 °F 5.0 °F 62% 30.00 in 10.0 mi WNW 21.9 mph 29.9 mph N/A   Clear
12:29 PM 14.0 °F -3.9 °F 3.2 °F 62% 30.01 in 10.0 mi WNW 20.7 mph 27.6 mph N/A   Clear
12:48 PM 14.0 °F -3.9 °F 3.2 °F 62% 30.01 in 10.0 mi West 20.7 mph 26.5 mph N/A   Clear
1:08 PM 12.2 °F -7.1 °F 3.2 °F 67% 30.02 in 10.0 mi WNW 23.0 mph - N/A   Clear
1:29 PM 14.0 °F -3.4 °F 3.2 °F 62% 30.03 in 10.0 mi WNW 19.6 mph 25.3 mph N/A   Clear
1:48 PM 12.2 °F -5.3 °F 3.2 °F 67% 30.04 in 10.0 mi WNW 18.4 mph 23.0 mph N/A   Clear
2:09 PM 12.2 °F -5.8 °F 3.2 °F 67% 30.05 in 10.0 mi WNW 19.6 mph 25.3 mph N/A   Clear
2:28 PM 12.2 °F -5.3 °F 3.2 °F 67% 30.06 in 10.0 mi WNW 18.4 mph 25.3 mph N/A   Clear
2:49 PM 12.2 °F -3.7 °F 3.2 °F 67% 30.07 in 10.0 mi WNW 15.0 mph - N/A   Clear
3:08 PM 12.2 °F -3.7 °F 3.2 °F 67% 30.08 in 10.0 mi WNW 15.0 mph 20.7 mph N/A   Clear
3:28 PM 12.2 °F -4.8 °F 1.4 °F 62% 30.09 in 10.0 mi WNW 17.3 mph - N/A   Clear
3:49 PM 10.4 °F -6.6 °F 1.4 °F 67% 30.09 in 10.0 mi WNW 16.1 mph - N/A   Clear
4:08 PM 10.4 °F -8.6 °F 1.4 °F 67% 30.10 in 10.0 mi WNW 20.7 mph 25.3 mph N/A   Clear
4:28 PM 10.4 °F -6.0 °F 1.4 °F 67% 30.10 in 10.0 mi NW 15.0 mph - N/A   Clear
4:48 PM 8.6 °F -9.5 °F 1.4 °F 73% 30.12 in 10.0 mi WNW 17.3 mph 20.7 mph N/A   Clear
5:09 PM 8.6 °F -7.0 °F 1.4 °F 73% 30.13 in 10.0 mi WNW 12.7 mph - N/A   Clear
5:29 PM 8.6 °F -7.0 °F -0.4 °F 67% 30.14 in 10.0 mi WNW 12.7 mph - N/A   Clear
5:48 PM 8.6 °F -7.7 °F -0.4 °F 67% 30.15 in 10.0 mi WNW 13.8 mph - N/A   Clear
6:09 PM 6.8 °F -5.9 °F -0.4 °F 72% 30.16 in 10.0 mi West 8.1 mph - N/A   Clear
6:28 PM 6.8 °F -6.9 °F -0.4 °F 72% 30.17 in 10.0 mi WNW 9.2 mph - N/A   Clear
6:48 PM 6.8 °F -7.8 °F -0.4 °F 72% 30.18 in 10.0 mi West 10.4 mph - N/A   Clear
7:08 PM 6.8 °F -7.8 °F -0.4 °F 72% 30.19 in 10.0 mi West 10.4 mph - N/A   Clear
7:28 PM 5.0 °F -10.0 °F -0.4 °F 78% 30.20 in 10.0 mi West 10.4 mph - N/A   Clear
7:49 PM 5.0 °F -9.1 °F -0.4 °F 78% 30.21 in 10.0 mi West 9.2 mph - N/A   Clear
8:08 PM 3.2 °F -11.3 °F -0.4 °F 85% 30.21 in 10.0 mi West 9.2 mph - N/A   Clear
8:28 PM 3.2 °F -12.2 °F -2.2 °F 78% 30.22 in 10.0 mi WNW 10.4 mph - N/A   Clear
8:49 PM 3.2 °F -13.1 °F -2.2 °F 78% 30.23 in 10.0 mi West 11.5 mph - N/A   Clear
9:08 PM 3.2 °F -13.1 °F -2.2 °F 78% 30.25 in 10.0 mi West 11.5 mph - N/A   Clear
9:29 PM 3.2 °F -12.2 °F -2.2 °F 78% 30.25 in 10.0 mi WNW 10.4 mph - N/A   Clear
9:48 PM 3.2 °F -11.3 °F -2.2 °F 78% 30.25 in 10.0 mi West 9.2 mph - N/A   Clear
10:08 PM 3.2 °F -10.3 °F -2.2 °F 78% 30.25 in 10.0 mi West 8.1 mph - N/A   Clear
10:48 PM 1.4 °F -11.3 °F -2.2 °F 85% 30.26 in 10.0 mi WNW 6.9 mph - N/A   Clear
11:08 PM 1.4 °F -9.9 °F -2.2 °F 85% 30.27 in 10.0 mi West 5.8 mph - N/A   Clear
11:29 PM 1.4 °F -11.3 °F -2.2 °F 85% 30.28 in 10.0 mi WNW 6.9 mph - N/A   Clear
11:48 PM 1.4 °F -11.3 °F -2.2 °F 85% 30.28 in 10.0 mi WNW 6.9 mph - N/A   Clear